Theta_e
307 309 309 310 311 313 315 318 319 323 326 328 330 330 330 331 331 332 331 329 328 327 327 327 327 329 333 334 331 331 332 331
305 308 308 309 310 311 313 314 316 317 320 322 324 326 328 328 329 329 328 327 326 326 327 326 326 327 329 330 329 331 331 330
305 306 307 308 309 310 311 312 313 312 314 317 321 324 324 326 328 328 327 326 325 325 325 325 325 326 325 327 328 329 331 330
303 304 306 307 308 309 310 311 312 312 309 312 313 319 323 324 325 326 326 325 325 324 324 323 325 323 311 316 325 330 330 329
303 304 306 307 308 310 309 310 311 311 309 309 313 313 315 321 323 324 325 326 330 328 326 326 327 327 307 308 310 327 325 325
302 303 303 306 306 308 309 311 310 310 310 307 308 311 312 315 320 323 327 327 330 330 330 329 329 326 304 303 306 323 323 324
300 303 301 306 304 306 308 308 309 309 309 308 308 308 309 311 317 321 324 327 329 330 328 328 327 325 302 301 308 320 321 322
300 299 301 301 302 304 303 304 306 307 308 309 310 310 310 310 313 320 323 325 326 325 326 326 318 324 300 299 306 316 318 318
298 298 298 298 299 302 299 300 302 305 306 308 311 312 312 315 318 319 321 321 322 324 323 324 324 321 319 299 298 316 316 316
295 294 294 296 297 297 296 294 298 302 303 304 306 311 311 311 315 316 317 320 319 320 320 319 320 322 307 300 298 299 308 316
293 292 292 293 294 294 292 295 296 298 301 302 304 308 310 311 313 313 313 317 314 314 314 315 316 317 320 300 298 297 297 310
292 292 292 292 293 293 293 294 296 296 297 299 302 304 306 310 310 311 311 312 313 313 314 313 314 315 316 318 316 313 300 306
293 292 293 294 296 297 298 297 296 295 295 297 300 302 304 304 308 310 310 315 311 312 314 314 314 314 315 310 311 317 318 311
292 292 294 295 298 299 298 298 298 296 294 296 298 300 301 303 304 307 299 298 297 297 297 307 314 302 298 298 299 298 297 293
292 293 294 296 296 297 297 298 299 296 295 296 298 298 299 301 303 303 304 302 296 295 297 297 298 299 296 296 294 293 293 297
293 293 295 293 295 297 297 297 297 297 297 296 299 298 299 300 302 303 304 306 305 308 296 299 295 293 293 293 293 295 309 303
291 292 292 291 294 296 299 298 297 296 297 298 299 300 300 301 303 302 303 305 306 308 309 298 298 292 292 292 293 311 312 313
288 289 290 290 293 297 300 300 299 298 299 296 298 303 302 301 302 301 304 307 307 307 308 307 310 305 305 306 305 309 312 314
289 290 289 290 290 299 303 303 303 303 303 301 297 303 302 302 302 304 305 306 305 306 308 309 298 311 309 311 312 312 313 315
288 288 288 289 291 296 305 305 305 305 304 305 305 305 305 304 305 307 307 307 309 309 310 306 290 313 313 313 313 314 315 316
Wind_Speed
14 15 15 15 15 15 13 12 13 9 9 8 10 13 14 14 14 14 14 14 13 13 12 12 12 11 11 11 11 11 10 9
15 16 16 14 14 14 12 11 9 11 10 9 9 8 10 12 14 14 15 15 15 14 13 13 13 12 12 12 10 10 9 8
19 19 17 16 15 13 13 10 8 6 8 11 7 9 9 9 12 14 15 15 14 15 15 14 13 12 11 12 11 10 9 7
26 25 22 18 17 14 13 12 11 6 7 7 8 10 9 13 12 14 14 15 15 15 15 15 15 11 14 9 10 9 8 6
24 23 21 19 17 16 14 14 13 11 7 9 10 7 10 11 15 16 14 14 13 14 15 15 15 12 13 11 5 9 8 6
25 23 21 24 19 20 19 17 17 17 15 8 7 13 11 11 12 15 13 14 14 14 15 15 14 12 14 12 9 7 6 6
25 23 24 24 24 21 21 22 21 20 18 16 14 12 13 14 15 12 13 13 15 15 15 17 16 14 16 14 11 8 8 7
24 24 20 22 21 18 21 24 24 23 21 20 19 17 20 17 15 9 10 12 14 14 16 16 15 15 15 14 10 7 8 7
22 21 20 21 19 17 19 23 27 24 23 24 21 21 21 20 17 13 11 12 12 11 16 14 14 13 13 15 14 9 8 8
21 18 18 18 17 16 20 21 20 21 22 21 20 22 18 16 18 16 16 13 13 12 13 13 12 12 10 13 15 15 7 8
18 16 18 18 17 16 19 20 18 18 19 20 18 21 20 20 18 18 15 16 15 15 14 13 12 12 11 12 13 12 9 9
17 17 16 16 15 16 19 19 17 17 17 18 16 16 17 15 16 15 16 15 15 15 15 15 14 13 12 11 10 9 12 10
17 16 16 17 15 16 15 17 18 16 15 14 16 14 16 15 13 15 16 16 15 15 14 14 14 14 13 12 11 11 10 4
17 17 16 16 15 9 11 13 16 16 13 11 11 11 11 13 13 13 8 1 9 8 3 10 14 3 8 13 11 7 8 2
16 17 16 14 16 9 12 11 8 13 11 11 9 11 10 10 12 12 11 6 5 6 11 6 8 1 14 11 7 7 6 7
17 16 14 15 15 10 10 7 7 10 9 7 9 10 8 8 11 12 12 10 13 12 5 10 9 6 8 9 12 7 8 6
17 14 15 16 15 13 7 5 7 8 7 6 7 7 7 9 9 8 8 10 11 13 13 9 9 8 9 10 12 9 13 13
18 15 17 15 15 14 9 7 5 7 5 9 8 9 10 8 5 9 9 9 9 8 8 9 12 12 9 11 10 10 12 11
16 13 15 15 17 15 6 4 2 9 6 6 5 6 6 6 6 7 7 7 8 9 9 11 10 13 15 14 14 13 13 13
18 19 23 21 20 16 9 3 2 4 6 7 6 6 7 8 7 7 7 8 8 8 7 6 11 9 10 12 13 13 14 14
Wind_Direction
299 302 312 314 321 323 336 333 343 325 302 225 202 198 180 179 174 170 171 168 172 175 178 183 183 179 178 182 184 174 178 181
297 294 305 309 309 313 322 339 354 343 303 221 213 219 194 182 180 171 176 173 170 173 177 182 183 178 179 180 180 175 175 177
299 298 300 294 295 297 300 306 321 355 334 328 267 200 209 217 191 181 181 177 178 183 179 181 183 186 185 186 180 185 184 189
303 300 295 294 293 286 287 283 286 295 302 313 336 320 232 204 208 200 189 186 189 192 188 190 187 199 126 127 183 177 179 187
296 298 296 295 293 289 281 278 279 272 263 280 291 294 297 248 209 206 197 201 198 194 190 194 187 193 132 137 154 172 180 191
308 301 300 290 290 289 286 273 267 259 257 214 255 281 267 275 229 221 198 195 201 197 189 189 184 174 146 152 167 189 205 221
289 286 289 284 286 268 270 271 263 255 249 244 202 209 261 253 243 213 210 200 196 198 195 185 184 174 159 162 181 199 209 228
284 286 274 285 274 258 265 267 261 255 252 246 237 208 199 226 236 208 198 211 203 200 195 194 187 186 163 166 185 228 221 231
287 281 280 276 276 267 264 265 260 257 255 250 234 227 229 216 207 202 191 193 210 208 197 191 197 202 176 175 185 226 248 242
295 288 282 280 276 265 258 251 258 261 258 250 249 233 223 217 215 208 199 192 205 194 212 201 200 204 207 186 186 214 229 249
297 287 281 274 269 259 257 255 242 245 249 236 238 237 227 219 209 208 203 200 205 201 208 212 214 201 204 176 189 205 220 234
300 291 283 279 269 256 250 252 240 238 233 226 230 237 231 227 211 210 208 206 203 210 207 213 213 215 212 191 199 203 226 224
308 302 297 292 287 273 259 241 231 222 220 221 218 224 217 219 228 211 213 218 213 208 213 214 215 215 213 202 211 210 226 223
311 310 308 308 307 304 302 274 226 205 199 207 207 208 207 207 209 221 223 32 231 224 227 218 219 165 137 150 167 225 269 5
318 324 312 329 323 342 348 352 133 162 179 192 187 198 210 209 193 195 207 199 96 226 184 212 243 142 146 161 169 170 163 154
330 329 339 338 335 10 13 40 110 146 164 170 179 189 215 212 195 195 204 203 200 199 200 215 211 167 164 163 153 158 197 213
340 340 351 349 347 352 31 65 111 132 141 158 179 180 174 177 184 195 212 210 193 207 197 190 198 172 148 137 159 229 221 228
348 347 353 348 347 342 348 81 103 134 170 153 178 166 178 175 195 187 207 201 182 192 191 187 196 177 197 202 205 215 228 240
347 349 356 359 349 338 10 125 199 144 164 140 188 182 181 182 193 202 191 193 205 208 210 200 182 189 205 206 203 207 215 222
357 5 7 358 350 343 340 127 191 133 162 155 150 155 157 172 185 190 190 197 187 185 193 155 145 213 212 206 207 209 206 214